Temp
62 62 58 60 50 46 40 47 50 54 54 57 61 59 57 57 56 48 68 71 75 74 73 72 71 75 75 76 74 75 76 77 77 77 77 77 77 77 77 76 76 76 77 78 77 76 75 74 74
60 66 61 52 43 37 39 47 50 53 57 61 62 59 57 55 64 64 65 72 74 73 73 70 67 70 73 75 74 75 75 76 77 77 77 77 76 76 77 76 75 76 77 77 76 75 74 73 73
63 64 55 47 39 37 40 48 48 58 59 58 57 60 57 58 64 64 69 71 70 72 70 69 68 68 72 70 74 74 75 75 76 77 77 76 76 76 76 75 75 75 77 76 75 74 73 73 72
61 58 53 44 41 46 47 50 51 54 58 59 55 54 58 63 65 68 70 70 68 70 71 70 69 69 70 71 74 74 74 74 75 76 76 76 76 75 75 75 75 75 75 75 73 73 73 72 72
57 51 43 41 42 45 48 54 53 52 51 55 57 51 54 64 66 66 66 67 67 67 70 72 69 70 69 70 72 72 72 72 74 74 75 75 75 74 74 74 74 74 73 72 73 72 71 71 71
51 48 39 37 42 46 47 53 54 50 52 57 55 51 54 64 61 62 63 63 65 63 66 66 67 67 68 68 68 69 69 68 68 68 68 69 69 73 74 74 73 72 71 71 71 71 70 70 71
48 43 39 38 41 45 49 54 52 49 50 53 53 50 53 60 61 61 60 61 62 62 63 63 68 66 64 65 65 66 66 66 66 66 66 66 65 66 72 71 71 71 71 70 69 69 69 70 70
48 45 39 37 40 42 51 52 54 54 51 59 57 47 47 55 61 60 59 57 59 60 60 60 62 66 64 63 63 64 64 65 64 64 63 62 63 63 60 66 68 69 68 68 68 68 69 68 68
51 41 38 39 42 43 51 50 54 54 51 53 55 52 56 59 59 57 55 55 55 57 56 58 58 61 65 64 62 62 62 63 62 62 61 62 62 61 59 59 65 66 66 67 67 67 66 64 63
46 38 41 45 45 44 47 48 48 49 49 50 50 53 57 56 55 53 51 51 52 53 54 55 56 57 61 64 62 62 62 61 62 62 62 61 59 59 58 55 56 61 62 66 67 65 62 59 55
46 41 47 48 49 50 48 49 49 45 44 46 46 53 55 54 52 51 50 50 50 51 54 54 55 56 56 62 60 61 60 61 60 60 60 60 59 58 56 53 53 54 55 56 57 56 56 56 55
43 50 49 51 51 49 46 48 47 44 46 51 50 52 51 51 49 48 48 49 50 51 53 54 53 54 55 57 61 60 59 58 58 59 59 58 57 55 54 52 52 52 54 52 52 52 53 53 54
43 45 50 50 50 48 49 45 44 46 50 52 54 53 50 48 48 48 48 49 49 50 51 52 53 54 56 56 61 60 59 58 58 58 58 57 55 53 53 52 51 51 54 52 52 52 52 52 53
44 45 46 48 47 48 46 44 44 44 47 49 52 48 47 46 46 45 47 46 48 49 49 52 53 55 55 56 58 60 60 58 58 58 56 54 54 52 52 51 51 51 53 55 53 52 51 50 51
45 41 43 43 46 46 45 41 41 43 47 48 48 46 45 45 45 43 44 44 45 47 49 49 53 54 52 57 58 61 61 59 59 58 56 55 53 52 51 51 51 51 51 54 54 53 52 51 51
40 38 33 44 46 47 45 35 45 45 42 46 45 41 42 43 43 42 44 43 44 45 46 49 51 51 51 55 60 61 61 59 59 58 56 54 53 52 51 50 50 51 51 51 51 52 51 50 49
34 29 32 39 46 43 42 37 45 46 45 44 41 40 41 40 41 41 42 42 43 43 44 46 49 48 49 54 59 58 58 59 58 57 56 55 53 53 51 50 50 51 50 50 51 51 52 49 48
30 29 32 31 40 42 37 38 42 44 45 42 37 38 38 39 39 41 41 42 42 42 43 46 49 49 49 52 56 57 56 55 56 56 55 54 53 52 50 50 49 50 49 48 49 49 50 50 49
34 32 30 33 41 38 33 36 41 43 41 40 37 36 36 38 39 41 41 40 40 42 42 45 48 50 49 48 52 55 53 53 53 54 54 53 52 51 51 49 49 49 48 48 49 48 47 47 48
34 30 29 35 39 37 35 34 37 40 37 37 36 36 36 37 38 40 39 38 38 38 40 44 47 49 48 48 50 53 53 52 51 52 52 52 51 51 50 49 49 48 47 47 47 48 45 46 47
33 31 30 31 35 35 32 30 32 36 38 39 38 38 39 37 37 37 38 36 36 36 37 41 44 47 47 47 49 51 52 52 50 50 50 50 51 50 49 49 48 48 48 46 47 47 47 44 46
30 35 34 33 29 22 32 16 29 34 34 36 36 35 35 36 37 37 36 36 35 35 37 39 41 45 46 46 46 47 46 46 48 48 48 49 50 49 49 48 48 47 46 46 47 48 47 48 45
33 36 34 33 27 24 25 19 27 32 32 35 35 34 33 33 35 36 36 37 36 36 34 35 38 40 42 44 44 44 44 45 47 48 47 47 47 48 48 48 47 46 46 46 46 45 45 46 46
38 34 31 29 25 8 24 22 23 29 32 33 35 32 35 33 34 35 37 38 36 35 35 35 36 37 38 39 41 42 42 42 42 43 45 46 46 46 46 46 46 46 45 45 44 45 45 45 45
35 26 8 10 8 9 26 23 27 33 34 34 35 35 33 32 33 34 34 35 36 35 35 37 35 36 36 36 37 37 40 41 40 40 41 42 43 44 45 45 44 44 44 44 44 44 44 44 44
31 27 11 3 6 13 26 16 27 33 37 37 35 34 33 33 35 35 34 35 35 36 35 35 35 35 36 36 35 35 36 37 39 40 40 40 40 41 43 45 45 44 44 44 44 43 43 44 43
29 22 31 11 6 8 19 26 34 33 34 34 34 35 34 35 35 36 36 37 37 37 37 37 37 36 36 36 35 35 35 34 33 35 38 37 39 41 41 43 44 45 44 44 43 42 42 43 43
31 34 19 13 2 0 14 20 23 29 28 31 31 32 33 34 35 35 36 39 39 39 40 40 39 37 37 37 37 37 35 34 33 33 32 33 34 37 39 40 42 43 44 43 43 42 42 41 41
24 20 23 23 18 6 3 16 28 29 29 28 29 32 32 35 34 36 35 38 38 40 39 38 37 36 37 37 37 36 35 36 35 33 31 31 32 33 35 37 39 40 40 42 42 41 41 40 40
29 28 25 11 11 15 13 19 34 29 29 31 31 33 33 33 35 36 37 36 37 36 36 35 36 36 37 37 37 36 35 35 33 32 32 32 30 30 32 35 36 37 37 39 39 40 40 40 39
MSLP
1015.74 1014.99 1014.99 1015.16 1016.78 1017.95 1018.66 1018.68 1018.01 1017.22 1016.61 1016.03 1015.73 1015.79 1016.52 1016.87 1016.81 1016.85 1015.50 1015.07 1014.32 1013.89 1013.71 1013.67 1013.63 1013.39 1013.52 1013.58 1013.58 1013.46 1013.29 1013.28 1013.38 1013.43 1013.47 1013.54 1013.65 1013.72 1013.90 1014.14 1014.20 1014.21 1014.26 1014.55 1014.78 1015.11 1015.24 1015.24 1015.41
1015.70 1015.06 1015.26 1016.40 1018.04 1019.48 1019.72 1019.04 1018.18 1017.51 1016.87 1016.33 1016.00 1016.09 1016.74 1017.29 1017.04 1016.48 1015.96 1015.36 1014.55 1014.04 1013.61 1013.99 1014.27 1014.19 1014.48 1013.98 1013.58 1013.24 1013.37 1013.22 1013.24 1013.27 1013.55 1013.57 1013.65 1013.79 1013.83 1014.11 1014.28 1014.25 1014.38 1014.47 1014.86 1015.26 1015.42 1015.39 1015.51
1015.54 1015.69 1016.82 1017.97 1019.37 1019.96 1019.79 1019.18 1018.31 1017.61 1017.20 1016.88 1016.72 1016.66 1017.39 1018.10 1017.51 1017.08 1016.33 1015.67 1014.88 1014.75 1014.70 1014.82 1015.24 1014.78 1014.55 1013.95 1013.40 1013.34 1013.24 1013.43 1013.38 1013.36 1013.40 1013.71 1013.67 1013.73 1013.76 1013.94 1014.17 1014.28 1014.32 1014.51 1014.94 1015.34 1015.60 1015.47 1015.55
1015.93 1016.34 1017.84 1018.55 1019.90 1020.05 1019.66 1019.21 1018.58 1018.20 1017.56 1017.34 1017.19 1017.73 1018.22 1018.23 1018.07 1017.54 1016.72 1015.95 1015.63 1015.58 1015.08 1014.91 1014.15 1014.23 1014.67 1014.41 1013.98 1013.56 1013.70 1013.61 1013.60 1013.50 1013.39 1013.55 1013.73 1013.65 1013.79 1013.93 1014.03 1014.19 1014.30 1014.73 1015.01 1015.39 1015.80 1015.70 1015.64
1016.61 1017.68 1018.70 1019.61 1020.07 1020.15 1019.68 1019.00 1018.40 1018.87 1018.59 1018.30 1017.90 1018.55 1018.60 1018.58 1018.58 1018.08 1017.43 1016.99 1016.59 1016.34 1016.03 1015.36 1014.66 1014.45 1014.21 1015.25 1014.50 1014.43 1014.22 1014.30 1014.09 1013.57 1013.61 1013.68 1013.70 1013.85 1013.77 1013.88 1013.99 1014.27 1014.54 1014.98 1015.37 1015.59 1015.88 1015.80 1015.79
1018.02 1018.82 1020.01 1020.13 1020.11 1019.88 1019.50 1019.09 1018.80 1019.03 1019.12 1018.59 1018.69 1018.82 1019.31 1019.07 1018.74 1018.55 1017.83 1017.64 1017.49 1017.28 1016.86 1016.36 1015.66 1015.02 1014.90 1014.51 1015.30 1015.24 1015.35 1015.08 1015.24 1015.26 1014.96 1014.70 1014.64 1014.02 1013.72 1013.84 1014.13 1014.53 1014.92 1015.30 1015.80 1015.91 1016.05 1015.92 1016.01
1018.58 1019.74 1020.53 1020.43 1019.97 1019.97 1019.61 1019.16 1019.25 1019.23 1019.08 1018.87 1018.80 1019.10 1019.44 1019.45 1019.44 1019.01 1018.47 1017.92 1017.77 1017.67 1017.22 1017.08 1016.48 1016.00 1015.32 1015.05 1014.80 1015.37 1015.49 1015.82 1015.18 1015.86 1015.81 1015.29 1015.27 1015.37 1013.86 1013.83 1014.34 1014.84 1015.33 1015.73 1016.01 1016.26 1016.16 1016.27 1016.35
1018.70 1019.84 1020.50 1020.43 1020.36 1020.48 1020.18 1019.64 1019.64 1019.65 1019.34 1018.95 1018.99 1019.95 1020.05 1020.13 1019.86 1019.23 1018.58 1018.47 1018.33 1018.22 1017.94 1017.55 1017.10 1016.48 1016.48 1016.18 1015.92 1015.35 1015.07 1015.07 1014.94 1015.27 1015.92 1016.50 1015.42 1015.49 1015.90 1013.00 1014.32 1015.14 1015.63 1016.17 1016.54 1016.54 1016.49 1016.59 1016.76
1018.88 1020.23 1021.01 1020.61 1020.39 1020.66 1020.40 1020.32 1020.10 1019.89 1019.81 1019.65 1019.82 1020.24 1020.33 1020.23 1019.89 1019.31 1019.20 1019.10 1018.76 1018.70 1018.67 1018.26 1017.68 1017.19 1016.79 1016.77 1016.53 1016.24 1015.75 1014.76 1014.33 1014.65 1015.39 1016.14 1015.95 1015.41 1015.91 1014.88 1014.63 1015.47 1015.93 1016.56 1016.95 1016.81 1016.85 1017.00 1017.19
1019.85 1020.88 1020.85 1020.63 1020.42 1020.58 1020.79 1020.87 1020.85 1020.52 1020.43 1020.17 1020.26 1020.61 1020.62 1020.43 1020.07 1020.23 1020.68 1020.63 1020.10 1019.46 1019.11 1018.82 1018.28 1017.70 1017.19 1016.69 1016.63 1016.46 1016.08 1015.56 1015.14 1014.33 1015.19 1015.71 1015.91 1015.73 1016.02 1016.87 1016.91 1016.83 1016.90 1016.83 1017.14 1017.15 1017.31 1017.51 1017.72
1020.61 1021.15 1021.07 1021.02 1020.82 1020.69 1020.79 1020.85 1020.99 1021.05 1020.85 1020.68 1020.82 1020.68 1020.68 1020.66 1021.00 1021.38 1021.69 1021.62 1021.34 1020.59 1019.68 1019.16 1018.53 1017.95 1017.43 1016.79 1016.64 1016.65 1016.35 1016.05 1015.81 1015.22 1015.39 1015.91 1016.22 1015.71 1015.74 1016.60 1018.46 1018.74 1018.35 1017.79 1017.67 1017.64 1017.80 1018.11 1018.25
1021.22 1021.52 1021.40 1021.36 1021.05 1020.89 1021.05 1021.16 1021.18 1021.16 1021.03 1020.84 1020.94 1021.08 1021.48 1021.82 1022.13 1022.29 1022.28 1022.05 1021.58 1020.98 1020.33 1019.73 1019.04 1018.24 1017.69 1017.18 1016.57 1016.52 1016.62 1016.29 1016.08 1016.02 1015.52 1015.74 1016.10 1016.58 1017.39 1017.38 1017.25 1019.30 1019.01 1018.56 1018.24 1018.16 1018.34 1018.52 1018.72
1021.76 1022.04 1021.89 1021.52 1021.36 1021.16 1021.11 1021.22 1021.44 1021.18 1021.07 1021.03 1021.11 1021.65 1022.09 1022.46 1022.77 1022.86 1022.82 1022.47 1022.11 1021.48 1020.87 1020.20 1019.47 1018.77 1017.95 1017.38 1016.60 1016.29 1016.45 1016.67 1016.44 1016.10 1015.93 1016.09 1016.60 1016.47 1017.24 1017.78 1017.57 1018.88 1019.03 1018.81 1018.73 1018.75 1018.82 1018.99 1019.18
1022.30 1022.34 1022.13 1021.86 1021.51 1021.32 1021.42 1021.57 1021.53 1021.26 1021.33 1021.55 1021.78 1022.34 1022.88 1023.20 1023.50 1023.25 1023.03 1023.00 1022.63 1022.09 1021.44 1020.69 1019.78 1018.88 1018.29 1017.55 1016.80 1016.45 1016.42 1016.48 1016.82 1016.54 1016.49 1016.70 1016.64 1017.12 1017.43 1017.65 1018.50 1018.92 1019.16 1019.04 1019.10 1019.14 1019.11 1019.43 1019.66
1022.42 1022.59 1022.45 1022.12 1021.89 1021.72 1021.69 1021.73 1021.86 1021.71 1021.68 1022.06 1022.56 1023.01 1023.60 1023.90 1023.90 1024.04 1023.83 1023.48 1023.19 1022.54 1021.91 1021.12 1020.08 1019.25 1018.64 1017.52 1016.68 1016.24 1016.24 1016.60 1016.71 1016.79 1016.97 1017.28 1017.40 1017.56 1017.39 1018.08 1018.20 1018.70 1019.19 1019.28 1019.25 1019.35 1019.49 1019.76 1020.22
1023.08 1023.23 1023.47 1022.55 1022.40 1022.48 1022.42 1022.42 1021.93 1021.81 1022.04 1022.50 1023.12 1023.76 1024.30 1024.57 1024.71 1024.68 1024.31 1023.87 1023.38 1022.88 1022.22 1021.37 1020.49 1019.76 1018.94 1017.82 1016.62 1016.17 1016.05 1016.29 1016.75 1016.93 1017.06 1017.60 1017.87 1017.90 1018.27 1018.31 1018.40 1018.78 1019.02 1019.25 1019.55 1019.87 1019.97 1020.10 1020.68
1024.47 1024.33 1024.26 1023.58 1022.94 1022.95 1023.25 1022.96 1022.40 1022.53 1022.92 1023.34 1023.78 1024.44 1024.92 1025.15 1025.08 1025.13 1024.75 1024.23 1023.66 1023.15 1022.49 1021.65 1020.84 1020.17 1019.38 1018.31 1017.19 1016.76 1016.40 1016.28 1016.51 1016.95 1017.15 1017.50 1017.98 1018.17 1018.12 1018.68 1018.65 1019.01 1019.37 1019.38 1019.40 1019.94 1019.92 1020.27 1021.03
1025.19 1025.01 1024.77 1024.79 1024.36 1023.96 1024.17 1023.89 1023.33 1023.24 1023.42 1023.57 1024.18 1024.89 1025.48 1025.57 1025.74 1025.63 1025.21 1024.70 1024.07 1023.47 1022.87 1022.07 1021.23 1020.47 1019.71 1018.75 1017.58 1017.21 1017.05 1017.01 1016.88 1017.13 1017.21 1017.33 1017.79 1018.11 1018.09 1018.74 1018.90 1019.07 1019.58 1019.86 1019.83 1020.22 1020.49 1020.54 1021.25
1025.52 1025.62 1025.62 1025.28 1025.01 1024.97 1024.92 1024.85 1023.72 1023.62 1023.70 1023.87 1024.74 1025.46 1025.86 1025.82 1025.99 1025.86 1025.57 1025.18 1024.66 1023.89 1023.27 1022.57 1021.78 1021.01 1020.28 1019.35 1018.50 1017.73 1017.74 1017.77 1017.64 1017.46 1017.62 1017.76 1017.81 1018.03 1018.20 1018.56 1018.83 1019.18 1019.51 1019.87 1019.97 1020.27 1020.90 1021.39 1021.15
1025.97 1026.25 1026.39 1025.88 1025.60 1025.65 1025.66 1025.31 1024.59 1024.45 1024.64 1024.52 1025.08 1025.56 1025.76 1025.96 1026.22 1026.22 1026.07 1025.65 1025.24 1024.80 1024.08 1023.25 1022.48 1021.72 1021.07 1020.37 1019.59 1018.81 1018.34 1018.21 1018.21 1018.06 1018.11 1018.20 1018.15 1018.22 1018.54 1018.67 1018.92 1019.19 1019.64 1019.86 1020.05 1020.24 1020.89 1021.38 1021.13
1026.38 1026.89 1027.19 1027.52 1026.95 1026.39 1026.33 1026.23 1025.59 1025.51 1025.50 1025.46 1025.53 1025.71 1026.19 1026.49 1026.63 1026.73 1026.56 1026.39 1025.91 1025.54 1025.03 1024.18 1023.30 1022.47 1021.82 1021.05 1020.12 1019.19 1018.81 1018.62 1018.64 1018.67 1018.69 1018.63 1018.46 1018.55 1018.74 1018.89 1019.11 1019.30 1019.46 1020.09 1020.31 1020.27 1020.47 1021.29 1021.71
1026.88 1027.31 1027.77 1028.07 1028.32 1028.38 1027.94 1028.19 1026.84 1026.20 1025.81 1025.70 1025.91 1026.43 1026.87 1027.11 1027.09 1026.99 1026.85 1026.77 1026.59 1026.31 1025.70 1025.05 1024.33 1023.37 1022.53 1021.84 1021.16 1020.62 1020.10 1019.76 1019.67 1019.43 1019.27 1018.93 1018.93 1019.03 1019.12 1019.13 1019.30 1019.53 1019.74 1019.95 1020.30 1020.36 1020.74 1020.85 1021.56
1027.25 1027.54 1028.26 1028.85 1029.50 1029.68 1029.42 1029.35 1027.47 1026.56 1026.21 1026.09 1026.32 1026.89 1027.23 1027.24 1027.16 1027.21 1027.19 1027.16 1026.96 1026.71 1026.38 1025.76 1025.09 1024.38 1023.64 1022.82 1022.20 1021.78 1021.38 1020.98 1020.45 1019.99 1019.78 1019.76 1019.50 1019.35 1019.53 1019.64 1019.70 1019.66 1019.87 1019.90 1020.30 1020.45 1020.77 1020.92 1021.25
1027.46 1028.11 1029.20 1030.19 1030.95 1031.39 1030.42 1029.95 1028.55 1027.18 1026.71 1026.79 1026.71 1027.09 1027.32 1027.44 1027.32 1027.18 1027.19 1027.24 1027.24 1026.92 1026.62 1026.29 1025.84 1025.30 1024.71 1024.12 1023.46 1022.82 1022.47 1022.14 1021.65 1021.01 1020.51 1020.35 1020.14 1019.88 1019.90 1019.90 1019.96 1020.04 1020.12 1020.04 1020.33 1020.41 1020.75 1020.90 1021.00
1028.21 1029.45 1031.14 1032.57 1032.73 1032.39 1030.89 1030.16 1028.30 1027.18 1027.14 1027.23 1027.15 1027.08 1027.41 1027.66 1027.53 1027.34 1027.24 1027.35 1027.34 1027.24 1027.05 1026.64 1026.45 1026.07 1025.50 1025.06 1024.62 1024.10 1023.53 1023.23 1022.92 1022.52 1022.14 1021.76 1021.07 1020.76 1020.30 1020.40 1020.24 1020.17 1020.43 1020.47 1020.29 1020.54 1020.53 1020.84 1020.91
1029.21 1030.52 1032.48 1034.27 1034.74 1033.49 1031.62 1030.29 1028.39 1027.84 1027.53 1027.49 1027.89 1027.91 1028.03 1027.97 1027.77 1027.49 1027.31 1027.35 1027.38 1027.32 1027.24 1027.07 1026.79 1026.49 1026.12 1025.74 1025.52 1025.12 1024.74 1024.36 1024.07 1023.52 1023.47 1022.99 1022.41 1021.48 1020.96 1020.71 1020.27 1020.75 1020.68 1020.68 1020.61 1020.55 1020.67 1020.69 1020.98
1029.91 1030.98 1032.16 1033.99 1035.68 1034.81 1032.33 1030.55 1028.28 1028.02 1028.35 1028.51 1028.65 1028.54 1028.46 1028.10 1027.80 1027.49 1027.03 1027.05 1027.16 1027.24 1027.21 1027.22 1026.97 1026.81 1026.54 1026.33 1026.12 1025.89 1025.45 1025.09 1024.81 1024.51 1024.34 1023.69 1023.23 1022.17 1021.90 1021.61 1020.93 1020.52 1020.68 1020.86 1020.66 1020.56 1020.78 1020.75 1020.79
1029.85 1030.91 1032.63 1034.83 1036.41 1036.23 1033.05 1031.34 1029.68 1029.04 1029.52 1029.26 1029.49 1029.60 1029.31 1028.85 1028.41 1027.96 1027.69 1027.21 1026.85 1026.94 1027.04 1027.00 1027.07 1027.06 1026.91 1026.69 1026.52 1026.46 1026.17 1025.72 1025.35 1024.97 1024.69 1024.42 1023.81 1023.25 1022.88 1022.14 1021.59 1020.90 1020.83 1020.57 1020.68 1020.76 1020.78 1020.91 1020.91
1030.66 1031.58 1033.12 1034.61 1036.15 1036.65 1034.68 1031.03 1029.76 1029.99 1030.05 1030.32 1030.12 1029.86 1029.62 1028.99 1028.32 1028.10 1027.96 1027.82 1027.37 1027.34 1027.46 1027.50 1027.10 1027.18 1027.05 1026.93 1026.84 1026.67 1026.52 1026.31 1025.88 1025.64 1025.43 1025.20 1024.73 1024.27 1023.74 1023.14 1022.29 1021.71 1021.58 1021.02 1020.69 1020.71 1020.91 1020.95 1021.03
1030.62 1031.50 1033.00 1035.42 1036.39 1036.19 1035.09 1031.37 1029.58 1030.33 1030.67 1030.78 1030.77 1030.32 1029.66 1029.24 1028.70 1028.05 1028.16 1028.18 1028.27 1027.93 1028.30 1028.31 1027.68 1027.63 1027.73 1027.27 1026.94 1026.96 1026.73 1026.56 1026.45 1026.29 1025.96 1025.66 1025.36 1024.92 1024.29 1023.54 1023.15 1022.56 1022.21 1021.51 1021.23 1021.17 1021.25 1021.21 1021.19
Wind_Speed
11 12 1 5 7 7 3 3 3 7 5 3 4 5 6 3 3 1 5 7 8 5 4 4 17 9 2 2 4 5 4 3 1 6 7 8 9 10 9 9 8 9 12 12 12 10 10 10 11
7 6 5 3 7 5 3 5 6 3 3 7 6 4 6 3 5 4 7 12 10 5 5 12 19 24 26 13 4 4 4 2 2 4 7 8 9 9 10 10 9 10 12 14 13 10 10 10 12
6 1 5 5 4 4 3 3 2 7 7 6 5 6 5 7 7 5 8 12 10 9 8 6 11 1 14 20 7 3 6 4 2 3 6 7 8 9 9 10 10 11 13 14 15 12 10 12 13
4 6 5 7 5 7 4 3 2 7 9 10 3 6 3 1 6 8 9 12 12 11 4 2 2 4 10 21 10 9 7 6 6 4 4 7 8 9 9 10 11 10 11 14 14 12 10 12 13
5 4 5 5 5 1 2 2 4 6 3 6 8 2 3 5 9 10 11 14 16 14 13 12 4 10 13 19 17 18 14 16 12 5 4 6 8 9 9 10 11 11 13 14 12 13 11 12 14
5 4 6 3 5 3 1 4 4 4 5 7 7 2 3 7 8 9 10 11 11 14 15 16 12 6 9 16 17 19 21 25 25 24 25 23 21 10 12 13 14 16 16 14 12 12 12 13 14
7 5 4 4 3 3 2 2 4 3 4 4 2 2 1 14 9 6 8 10 11 12 14 14 11 8 14 14 18 19 23 21 21 23 22 23 28 31 12 13 15 16 15 15 13 12 13 14 14
5 5 3 2 2 2 7 2 2 6 3 8 4 4 5 5 8 7 7 10 10 11 11 13 13 9 7 6 10 14 18 18 19 18 18 17 20 25 39 13 16 16 16 13 12 13 14 14 13
3 6 2 1 2 3 5 5 7 4 3 4 3 3 4 6 4 10 10 12 11 11 9 10 11 11 8 4 3 3 5 14 16 15 13 5 5 10 17 24 16 16 16 13 11 13 14 13 14
6 4 2 2 2 3 1 4 5 5 7 4 2 2 4 3 9 13 10 11 12 15 13 9 9 9 9 3 3 4 4 3 3 7 6 4 6 7 13 18 28 14 10 13 13 14 11 9 4
2 3 2 3 3 2 3 6 3 3 3 2 2 7 8 10 10 9 8 6 8 9 9 11 11 9 8 6 3 2 2 1 1 4 4 5 4 6 8 6 6 8 8 3 5 5 4 6 4
5 6 4 1 2 2 2 2 7 2 4 2 2 2 4 8 9 8 9 10 13 13 12 13 11 11 8 6 2 1 1 1 1 1 4 4 4 7 5 6 9 5 3 3 4 3 5 6 6
4 4 6 5 5 3 0 4 4 7 8 6 4 7 7 8 8 6 6 7 10 13 15 14 13 11 10 7 3 2 2 1 1 1 3 4 4 6 7 6 7 2 1 2 4 4 5 6 6
2 4 6 6 3 1 2 3 2 3 2 3 7 6 8 9 7 6 11 10 12 12 14 14 14 11 11 7 6 3 2 3 1 1 3 5 5 6 7 7 6 4 2 2 3 4 5 5 5
2 5 6 2 3 2 0 3 3 3 2 2 6 6 7 8 8 8 7 7 8 10 12 13 13 13 13 11 7 4 3 3 2 0 4 5 5 6 9 6 9 7 3 3 4 5 6 7 6
4 5 5 5 3 4 4 7 5 3 1 5 5 6 6 8 7 7 7 7 8 9 12 13 12 12 12 12 7 3 4 3 2 3 4 4 5 6 6 7 7 6 6 6 3 3 4 6 5
7 1 3 7 5 1 4 8 6 3 6 8 5 5 6 6 8 8 8 8 9 9 10 12 12 11 13 11 6 5 6 1 3 3 3 6 6 5 5 4 5 6 4 4 4 2 5 6 5
1 2 3 3 5 7 4 14 9 7 6 9 2 6 6 7 6 5 8 8 9 9 9 9 9 12 12 9 6 2 4 4 4 2 2 5 4 6 7 5 6 5 4 3 3 3 3 6 6
2 1 2 4 5 5 1 7 17 10 5 7 6 5 5 5 3 6 8 8 10 12 12 11 12 13 10 6 6 3 2 2 3 4 3 1 4 4 5 6 7 6 6 4 5 4 6 3 8
2 2 4 6 5 3 7 10 6 5 4 4 8 5 3 3 6 7 8 8 9 10 12 12 13 12 10 7 5 3 2 3 2 3 4 1 3 5 4 5 5 6 3 4 5 6 3 1 3
4 2 3 4 7 2 6 7 8 4 4 5 2 2 4 5 5 7 8 8 8 10 11 12 12 12 11 13 7 5 3 2 3 3 2 2 2 3 3 4 4 5 5 4 2 5 5 3 2
2 2 2 4 5 2 5 5 7 7 4 3 2 3 4 5 5 5 6 7 8 8 8 11 11 13 11 13 10 11 6 5 3 3 3 3 3 2 2 3 3 4 3 4 3 3 2 3 6
3 2 3 1 1 3 5 4 9 4 3 5 6 1 1 1 3 5 6 6 6 7 7 8 9 12 14 12 11 9 10 7 6 4 5 4 4 4 2 0 2 3 3 4 5 4 4 2 2
3 3 6 5 2 4 3 4 6 3 4 5 4 2 3 2 3 3 4 5 6 7 7 7 9 9 12 12 13 12 11 11 9 10 7 4 3 3 4 2 1 0 2 4 3 4 5 3 3
6 6 6 9 7 6 3 2 8 5 4 4 8 7 5 2 2 1 4 5 6 7 7 7 8 9 9 10 11 12 12 10 10 9 8 8 6 5 5 2 1 1 1 3 4 4 3 3 2
3 5 7 5 3 5 4 4 3 3 5 6 8 5 0 4 4 3 2 2 4 5 6 6 7 7 8 8 9 8 10 7 6 8 7 5 6 7 10 6 3 2 2 3 3 3 3 3 3
1 2 3 5 1 4 2 6 7 1 9 9 8 6 7 8 7 7 5 3 1 4 4 5 6 6 7 7 6 8 7 8 7 8 7 6 6 7 9 8 7 2 2 4 4 2 3 3 2
2 4 3 4 2 6 5 3 6 5 5 9 10 10 10 9 9 6 5 3 3 1 2 4 6 6 5 6 6 5 6 6 6 7 10 10 9 10 9 8 7 6 3 1 1 1 2 3 2
2 2 4 4 5 6 4 5 6 4 7 7 8 9 8 10 8 7 6 3 4 5 6 6 6 7 7 7 6 6 5 5 5 5 6 8 8 8 7 7 8 8 7 5 3 3 3 3 3
3 5 6 7 7 4 4 13 7 8 5 9 12 12 10 8 8 5 2 1 1 6 6 5 6 7 7 6 6 6 5 4 4 5 6 6 6 7 7 7 7 8 7 7 7 5 4 3 3
Wind_Direction
328 311 356 37 56 60 29 50 321 18 12 340 302 47 127 74 348 228 277 320 335 319 67 11 348 293 217 216 208 147 158 139 212 210 180 164 161 160 161 164 165 166 146 142 129 126 115 108 100
320 325 33 73 80 71 307 309 26 331 298 325 348 59 54 36 4 333 349 330 326 339 60 42 28 355 344 312 230 165 210 179 165 190 207 179 173 173 171 175 173 166 160 150 132 133 127 113 100
318 49 70 77 99 125 139 291 346 346 5 0 6 58 57 315 337 326 296 321 345 11 74 106 121 327 312 304 298 81 316 233 228 196 191 199 185 182 178 177 178 177 178 155 135 136 128 115 104
9 15 29 83 86 4 110 269 3 1 354 9 344 53 60 315 344 326 320 346 10 6 64 169 117 126 333 286 317 340 260 324 256 225 199 199 198 193 183 180 179 184 177 149 133 131 128 116 106
30 52 59 83 72 85 314 235 60 52 12 341 352 353 71 4 350 335 11 21 18 9 6 357 5 66 79 328 6 30 26 333 283 249 246 231 212 209 186 179 172 162 144 127 135 130 127 112 100
40 80 63 94 115 190 348 2 46 70 345 339 21 77 78 317 19 351 15 26 24 14 11 2 5 51 81 76 48 52 55 55 38 38 38 24 355 234 186 165 156 133 125 132 132 128 116 99 94
102 77 164 137 138 62 322 304 49 25 356 328 287 358 159 9 353 346 17 22 27 21 16 12 15 29 65 80 91 85 81 69 53 37 32 37 33 2 195 146 129 128 129 122 126 122 111 102 95
98 90 99 36 127 79 350 31 21 42 301 313 357 16 339 318 333 346 14 21 21 20 13 7 4 359 27 50 79 107 113 99 93 70 48 18 41 34 356 134 126 120 117 119 126 117 107 100 87
75 59 67 30 96 136 2 31 340 293 7 8 63 104 268 277 322 31 18 4 7 8 8 4 359 357 349 12 35 48 69 103 109 108 105 70 47 58 31 2 106 110 114 118 122 111 101 87 84
69 88 148 306 107 134 93 56 322 20 336 327 343 137 318 355 37 37 17 2 358 352 351 358 350 344 339 330 353 341 5 6 98 115 135 139 123 104 82 29 8 57 101 117 111 101 89 79 71
33 126 145 7 118 58 18 1 344 7 314 234 305 323 10 23 32 33 16 3 343 327 339 345 340 336 335 325 328 331 347 353 324 118 129 124 135 82 109 97 48 342 348 31 71 77 67 79 76
76 18 8 104 27 52 331 314 329 216 245 245 271 331 48 41 41 23 11 359 352 346 339 335 333 330 328 332 310 331 44 344 16 45 101 103 92 90 92 114 106 320 306 44 66 71 78 70 72
59 351 333 318 313 265 45 261 246 269 275 266 312 49 46 53 48 25 5 3 351 349 340 335 330 326 324 324 291 205 192 257 304 23 72 85 100 105 99 89 96 102 294 47 71 80 78 66 64
318 320 292 299 297 271 234 289 16 293 18 3 51 64 59 61 33 25 17 -0 358 345 341 332 332 332 331 327 300 235 195 176 193 101 77 94 111 118 110 117 91 88 357 74 83 83 84 71 63
15 356 343 344 264 214 148 339 228 307 265 343 50 62 65 53 36 31 5 2 353 342 332 336 330 334 335 322 301 196 188 171 174 161 112 116 119 134 122 131 131 125 95 57 92 86 87 79 70
31 48 28 326 90 343 22 278 285 248 351 309 9 69 65 42 37 13 8 2 348 343 340 333 333 334 335 326 338 347 190 168 180 170 126 106 112 134 148 149 136 132 128 119 88 104 95 97 85
8 53 357 336 41 51 25 275 274 9 342 305 310 83 69 48 32 11 4 358 350 343 337 336 336 344 335 326 337 1 21 93 147 146 158 150 144 145 134 144 138 134 121 129 142 159 133 111 93
304 8 325 275 328 4 293 281 292 288 311 287 257 107 77 55 26 350 5 358 352 345 338 333 345 354 345 336 325 28 38 26 24 41 217 137 143 157 132 141 137 125 135 130 81 102 71 121 116
140 178 267 266 302 343 169 282 289 318 286 313 116 89 82 74 351 18 6 359 0 0 353 346 355 358 355 350 337 349 30 15 23 41 15 96 130 139 142 145 144 146 159 166 145 109 117 92 117
55 360 335 295 335 335 352 291 323 9 356 350 132 128 141 70 29 13 9 5 4 355 355 353 357 360 357 349 327 314 338 48 28 38 42 33 114 122 131 152 151 142 161 161 154 142 123 123 162
29 24 6 274 323 323 347 336 337 38 44 42 85 144 70 68 45 15 8 5 0 6 355 357 352 359 2 354 350 349 345 30 19 31 30 48 79 102 116 136 166 165 152 171 154 142 132 121 242
33 348 327 324 27 312 52 283 308 337 343 297 264 61 58 47 38 25 18 10 4 355 354 359 356 4 4 7 7 14 22 14 2 15 7 32 69 100 139 150 164 164 146 153 160 142 130 133 185
244 290 284 264 95 3 2 68 274 329 318 330 325 83 29 84 85 38 21 14 2 3 1 353 356 9 7 11 18 19 18 8 1 19 33 18 38 50 71 102 190 180 170 150 156 141 138 127 146
303 336 41 48 74 30 247 112 283 299 324 335 332 196 214 166 99 62 23 17 1 4 8 5 5 12 8 10 14 22 23 13 11 16 11 13 17 44 40 61 180 6 181 145 170 150 167 165 218
51 40 351 355 6 217 250 5 245 299 5 305 290 234 212 203 179 120 43 11 6 9 8 7 10 13 8 15 16 15 18 20 20 9 10 359 7 5 32 341 128 74 233 194 161 167 176 188 195
65 117 145 237 267 269 280 236 245 6 323 350 8 11 197 231 242 208 125 39 359 4 12 15 18 14 9 16 12 13 18 17 11 14 2 5 351 3 8 333 48 253 201 216 202 164 172 152 190
183 73 157 104 62 29 243 310 319 153 19 13 356 355 286 257 244 228 176 160 9 5 12 9 17 16 18 18 13 13 15 22 16 8 352 8 355 8 1 350 356 339 237 215 206 179 194 194 204
111 151 65 5 21 305 276 239 235 354 317 16 8 346 327 304 289 262 246 192 157 137 23 19 19 20 9 11 20 12 4 12 15 13 10 2 360 0 351 356 349 6 325 345 236 239 215 205 222
33 28 57 117 147 184 287 257 210 113 47 0 343 350 327 330 296 253 259 301 82 62 31 357 22 9 7 11 1 359 3 0 12 22 9 358 349 354 355 354 358 6 357 350 15 329 278 240 221
178 177 141 129 254 223 174 268 306 104 100 21 343 323 316 323 317 250 204 159 100 71 21 337 14 17 350 338 352 344 343 351 27 22 4 354 351 347 346 3 8 5 355 6 7 354 313 275 265